Regional Weather Roundup
Issued by NWS Wakefield, VA

Home | Current Version | Previous Version | Graphics & Text | Print | Product List | Glossary On
Versions: 1 2 3 4 5 6 7 8 9 10 11 12 13 14 15 16 17 18 19 20 21 22 23 24 25 26 27 28 29 30 31 32 33 34 35 36 37 38 39 40 41 42 43 44 45 46 47 48 49 50
000
ASUS41 KAKQ 291415
RWRAKQ

REGIONAL WEATHER ROUNDUP
NATIONAL WEATHER SERVICE WAKEFIELD VA
1000 AM EDT FRI MAY 29 2015

Note: "fair" indicates few or no clouds below 12,000 feet with no
significant weather and/or obstructions to visibility. * = Denotes
station may not report precipitation (e.g., rain,snow,etc.),
thunder or fog.

VAZ042-051-052>054-056-291500-
NORTHERN VIRGINIA

CITY           SKY/WX    TMP DP  RH WIND       PRES   REMARKS
WASH NATIONAL  CLOUDY    76  65  68 E8        30.27S
DULLES         CLOUDY    74  64  71 E8        30.27S
FORT BELVOIR   CLOUDY    74  67  79 CALM      30.27S
QUANTICO       CLOUDY    74  69  85 E7        30.26F
FREDERICKSBRG* CLOUDY    76  73  90 CALM      30.25S
STAFFORD*      CLOUDY    76  69  80 E7        30.30S HAZE
WARRENTON      CLOUDY    74  71  91 NE5       30.26F
CULPEPER*      CLOUDY    72  68  89 N5        30.27S
MANASSAS*      CLOUDY    73  70  88 E6        30.27S
LEESBURG*      PTSUNNY   77  63  61 E6        30.29S
WINCHESTER     CLOUDY    75  54  46 E3        30.28F
FRONT ROYAL*   FAIR      72  63  73 NE5       30.28S
LURAY*         FAIR      77  68  73 N5        30.27F
$$

VAZ048-049-060>072-079>083-291500-
CENTRAL AND SOUTH CENTRAL VIRGINIA

CITY           SKY/WX    TMP DP  RH WIND       PRES   REMARKS
RICHMOND       MOSUNNY   78  67  68 CALM      30.25S
CHESTERFIELD*  NOT AVBL
PETERSBURG*    SUNNY     79  73  81 SW3       30.25F
HANOVER        MOSUNNY   78  69  73 CALM      30.26S
TAPPAHANNOCK*  SUNNY     79  64  59 CALM      30.26S
QUINTON*       FAIR      76  67  73 CALM      30.25S
CHARLOTTSVILLE CLOUDY    71  67  87 NE8       30.27S FOG
GORDONSVILLE*  CLOUDY    71  69  94 NE3       30.26F FOG
ORANGE*        CLOUDY    72  70  94 CALM      30.28F FOG
LOUISA*        PTSUNNY   77  70  78 CALM      30.25S
BUMPASS*       FAIR      76  70  81 CALM      30.25S
FARMVILLE*     SUNNY     79  67  66 CALM      30.24S
CREWE*         FAIR      78  69  73 CALM      30.25S
FORT PICKETT*  FAIR      76  69  79 SW3       30.25S
CHASE CITY*    FAIR      78  71  79 CALM      30.25S
CLARKSVILLE*   FAIR      77  68  73 SW5       30.25S
SOUTH HILL*    PTSUNNY   75  67  75 CALM      30.30F
LAWRENCEVILLE* FAIR      73  66  78 S3        30.25S
EMPORIA*       SUNNY     75  64  69 SW3       30.26F
$$

VAZ088>098-291500-
SOUTHEAST VIRGINIA

CITY           SKY/WX    TMP DP  RH WIND       PRES   REMARKS
NORFOLK        CLOUDY    78  62  57 S5        30.26R
VIRGINIA BEACH MOSUNNY   81  63  54 S3        30.25S
NORFOLK NAVAL  MOSUNNY   83  62  49 VRB5      30.27S
WEST POINT*    SUNNY     81  60  49 S5        30.27S
SALUDA*        FAIR      78  67  69 S3        30.25S
NEWPORT NEWS   CLOUDY    79  65  62 CALM      30.26S
LANGLEY AFB    PTSUNNY   77  66  69 W3        30.25S
FORT EUSTIS    PTSUNNY   74  65  72 VRB3      30.24S
WILLIAMSBURG*  SUNNY     79  68  69 SE6       30.27R
HR EXEC AP*    PTSUNNY   79  64  61 SW3       30.27S
FRANKLIN*      PTSUNNY   78  65  65 CALM      30.26S
WAKEFIELD      SUNNY     78  66  66 S5        30.25S
$$

VAZ020-022-025-037-045-291500-
WEST CENTRAL AND SOUTHWEST VIRGINIA

CITY           SKY/WX    TMP DP  RH WIND       PRES   REMARKS
STAUNTON*      MOSUNNY   75  67  75 NE5       30.31S
WAYNESBORO*    FAIR      72  66  81 NW6       30.30R
HOT SPRINGS VA CLOUDY    66  64  93 E8        30.36S
LYNCHBURG      SUNNY     76  64  66 CALM      30.28S
DANVILLE       SUNNY     76  66  71 VRB3      30.26S
SOUTH BOSTON*  FAIR      77  67  71 CALM      30.25S
MARTINSVILLE   SUNNY     77  69  77 CALM      30.29F
ROANOKE        MOSUNNY   75  63  66 CALM      30.29S
BLACKSBURG     CLOUDY    72  65  77 E6        30.34S
DUBLIN*        CLOUDY    71  67  87 E3        30.32F
MARION*        CLOUDY    68  64  87 E5        30.35S
HILLSVILLE*    NOT AVBL
RICHLANDS*     FAIR      72  63  74 CALM      30.30F
WISE*          CLOUDY    72  59  64 S6        30.31S
ABINGDON*      MOSUNNY   77  62  60 SE3       30.28S
$$

MDZ021>025-VAZ099-100-291500-
SOUTHERN MARYLAND AND THE DELMARVA PENINSULA

CITY           SKY/WX    TMP DP  RH WIND       PRES   REMARKS
PATUXENT RIVER MOSUNNY   77  68  73 SE6       30.25S
BAY BRIDGE APT   N/A    N/A N/A N/A NE8       30.28S
LEONARDTOWN    PTSUNNY   75  66  73 CALM      30.27S
DOVER          MOSUNNY   70  62  77 E9        30.26S
GEORGETOWN     SUNNY     75  65  70 VRB3      30.27S
EASTON         NOT AVBL
CAMBRIDGE      CLOUDY    77  68  73 CALM      30.26R
SALISBURY      MOSUNNY   77  66  68 CALM      30.26S
OCEAN CITY     SUNNY     72  65  78 SE5       30.27S
WALLOPS ISLAND MOSUNNY   76  68  76 S8        30.27S
ACCOMACK*      SUNNY     79  68  69 CALM      30.26S
$$

NCZ012>017-030>032-291500-
NORTH CENTRAL AND EASTERN NORTH CAROLINA

CITY           SKY/WX    TMP DP  RH WIND       PRES   REMARKS
ROANOKE RAPIDS FAIR      77  64  65 W3        30.26S
RALEIGH        MOSUNNY   77  65  66 W3        30.26S
ELIZABETH CITY SUNNY     78  64  61 SW3       30.26S
AHOSKIE*       SUNNY     75  64  68 S3        30.26F
EDENTON*       SUNNY     76  64  66 S3        30.26S
CURRITUCK*     SUNNY     78  61  54 SW5       30.27S
KILL DEVIL HLS SUNNY     76  65  69 NE5       30.26R
MANTEO         SUNNY     76  66  71 E6        30.27R
CAPE HATTERAS  SUNNY     78  66  66 E8        30.26R
TARBORO*       FAIR      77  65  65 CALM      30.27S
GOLDSBORO      MOSUNNY   77  64  65 CALM      30.24S
WASHINGTON     SUNNY     76  62  60 CALM      30.26F
GREENVILLE     SUNNY     77  63  61 S5        30.27S
NEW BERN       SUNNY     78  63  59 CALM      30.27S
WILMINGTON     SUNNY     79  65  62 E5        30.24R
$$

VAZ048-291500-
ELSEWHERE

CITY           SKY/WX    TMP DP  RH WIND       PRES   REMARKS
HARRISBURG PA  SUNNY     74  56  53 SE8       30.29F
BALTIMORE      CLOUDY    73  59  61 E14       30.28S
ANNAPOLIS      CLOUDY    70  60  70 NE8       30.28S
ANDREWS AFB    CLOUDY    71  67  86 NE7       30.27S
PHILADELPHIA   MOSUNNY   76  56  49 E9        30.29F
HENDERSON NC   MOSUNNY   76  62  61 SW6       30.26S
GREENSBORO     MOSUNNY   77  66  68 W3        30.26R
ROCKY MOUNT    SUNNY     78  65  63 SW5       30.26S
$$

VAZ100-291500-
MARINE

STATION/POSITION TIME  TEMP    WIND        PRES    WAVE   SWELL
                       AIR SEA DIR/SP/G            HT/PER HT/PER
                 (UTC) (F)     (DEG/KT/KT) (MB)    (FT/S) (FT/S)
BRANDYWINE LGT   1300   67 65   90/ 13/ 15 1025.2R
CAPE MAY NJ      1300   69 69   80/ 13/ 18 1024.6S
LEWES DE         1300   64 65   90/  8/ 10 1025.0S
15NM E FENWICK I 1250   66 63              1024.9    3/ 8
OCEAN-CITY-INLET 1300   67 57  130/  3/  4 1024.7R
WACHAPREAGUE VA  1300   73 73  180/  5/  6 1024.7R
THOMAS POINT MD  1400   69 70   50/  8/  9 1025.7R
GOOSES REEF MD   1400   73 71   30/  4/  4 1025.7R   1/ 3
COVE POINT MD    1300   71     190/  5/  6 1025.1R
SOLOMONS ISLAND  1300      73                N/A
BISHOPS HEAD MD  1300   74 74  210/  5/  6 1024.3F
PINEY POINT MD   1300          170/  3/  3   N/A
CAMBRIDGE MD     1300   72 75   90/  4/  5 1024.4S
LEWISETTA VA     1300   77 74              1024.1S
RAPPAHANNOCK LGT 1300          200/  7/  8 1025.2R
STINGRAY PT      1400   74 73  160/  4/  4 1024.8R   1
YORK RVR RNG VA  1300   76     240/  4/  5 1023.9R
YORKTOWN VA      1300   74 72  230/  4/  6 1024.2R
JAMESTOWN VA     1400   75 77   CALM  /  2 1023.6R
DOMINION TERM VA 1300   72     210/  5/  5 1024.8R
KIPTOPEKE VA     1300      75  160/  4/  4   N/A
CHES BAY BRIDGE  1300   73 67  180/  5/  6 1024.1S
CAPE HENRY VA    1300   75     180/  7/  9 1023.3R
CHESAPEAKE LGHT  1300   67     170/  6/  6 1025.5R
WILLOUBY STN VA  1300   72     250/  5/  5 1025.4R
CAPE HENRY BUOY  1328                        N/A     2/ 9
1ST LANDING BUOY 1400      72              1024.4R
CAPE CHARLES BUO 1326      69                N/A     2/ 9   2/ 9
OFFSHORE WE BUOY 1311      67                N/A     3/ 9   3/ 9
64NM E OF VA BCH 1350   69 65   80/  4/  4 1024.8R   3/ 9   3/ 9
DUCK PIER NC     1300   70 54  100/  6/  6 1023.8R
44100 DUCK FRF   1324      69                N/A     2/ 8
44056 DUCK FRF   1311      64                N/A     2/ 8
OREGON INLET NC  1300   74 77   60/  8/ 10 1024.6R
HATTERAS NC      1300   76 76   50/  7/ 10 1023.9R
DIAMOND SHLS NC  1350   77 76   90/  8/ 10 1024.3R   3/ 9   3/ 9
CAPE LOOKOUT NC  1400   74      50/ 10/ 11 1024.3R
$$



USA.gov is the U.S. government's official web portal to all federal, state and local government web resources and services.